Regional Weather Roundup
Issued by NWS

Home | Current Version | Previous Version | Graphics & Text | Print | Product List | Glossary On
Versions: 1 2 3 4 5 6 7 8 9 10 11 12 13 14 15 16 17 18 19 20 21 22 23 24 25 26 27 28
000
ASUS45 KCYS 260010
RWRWY

WYOMING REGIONAL WEATHER ROUNDUP
NATIONAL WEATHER SERVICE CHEYENNE WY
600 PM MDT SUN JUN 25 2017

NOTE:  "FAIR" INDICATES FEW OR NO CLOUDS BELOW 12,000 FEET
WITH NO SIGNIFICANT WEATHER AND/OR OBSTRUCTIONS TO VISIBILITY.

WYZ001-260100-
YELLOWSTONE NATIONAL PARK

CITY           SKY/WX    TMP DP  RH WIND       PRES   REMARKS
LK YELLOWSTONE   N/A     64  34  32 SE5       30.42F
6HR MIN TEMP:  58; 6HR MAX TEMP:  71;

W YELLOWSTONE  NOT AVBL

$$
WYZ002>013-054>058-071-098>099-260100-
NORTHERN WYOMING

CITY           SKY/WX    TMP DP  RH WIND       PRES   REMARKS
JACKSON        SUNNY     79  36  21 NW12      30.31F
CODY           FAIR      75  38  26 VRB3      30.28F
GREYBULL       FAIR      82  31  15 N14G21    30.18F
6HR MIN TEMP:  74; 6HR MAX TEMP:  84;

WORLAND        FAIR      81  36  19 NE9       30.21F
6HR MIN TEMP:  73; 6HR MAX TEMP:  82;

SHERIDAN       FAIR      77  39  25 N13       30.25F
6HR MIN TEMP:  73; 6HR MAX TEMP:  79;

BUFFALO        FAIR      73  37  27 N12       30.30F
6HR MIN TEMP:  69; 6HR MAX TEMP:  75;

GILLETTE       FAIR      76  31  19 NW15      30.25F
6HR MIN TEMP:  73; 6HR MAX TEMP:  79;

NEWCASTLE      FAIR      75  27  16 N14G23    30.24S

$$
WYZ014>020-022>026-101>103-260100-
CENTRAL WYOMING

CITY           SKY/WX    TMP DP  RH WIND       PRES   REMARKS
BIG PINEY      FAIR      76  35  22 CALM      30.34F
6HR MIN TEMP:  69; 6HR MAX TEMP:  78;

PINEDALE       FAIR      75  28  17 N13G18    30.35F
DUBOIS         FAIR      75  30  19 N8        30.34F
LANDER         FAIR      78  39  24 VRB7      30.24F
6HR MIN TEMP:  67; 6HR MAX TEMP:  79;

RIVERTON       FAIR      78  34  20 E9        30.26F
6HR MIN TEMP:  68; 6HR MAX TEMP:  79;

CASPER         FAIR      78  30  17 VRB7      30.26F
6HR MIN TEMP:  71; 6HR MAX TEMP:  80;

DOUGLAS        PTSUNNY   76  31  19 CALM      30.26F
6HR MIN TEMP:  70; 6HR MAX TEMP:  80;


$$
WYZ021-027>030-104>119-260100-
SOUTHERN WYOMING

CITY           SKY/WX    TMP DP  RH WIND       PRES   REMARKS
EVANSTON       FAIR      80  31  16 N10       30.34F
6HR MIN TEMP:  71; 6HR MAX TEMP:  81;

KEMMERER         N/A     77  30  18 W3        30.36F
FORT BRIDGER   FAIR      81  24  12 N5        30.37F
ROCK SPRINGS   FAIR      79  22  12 NW10      30.32F
6HR MIN TEMP:  70; 6HR MAX TEMP:  81;

DIXON          FAIR      81  23  11 CALM      30.32F
RAWLINS        FAIR      77  22  13 NW12G23   30.35S
6HR MIN TEMP:  70; 6HR MAX TEMP:  79;

SARATOGA       FAIR      75  25  15 N13       30.35F
LARAMIE        FAIR      73  27  18 N21G32    30.34F
6HR MIN TEMP:  67; 6HR MAX TEMP:  76;

CHEYENNE       FAIR      69  48  47 MISG      30.33S
6HR MIN TEMP:  60; 6HR MAX TEMP:  70;

TORRINGTON     FAIR      77  39  25 S7        30.21F
6HR MIN TEMP:  71; 6HR MAX TEMP:  81;

PINE BLUFFS    FAIR      70  48  46 E5        30.30S

$$




USA.gov is the U.S. government's official web portal to all federal, state and local government web resources and services.